This is the latest recevied weather packets stored in our database for station/object KG5TTF. If no packets are shown the sender has not sent any weather packets the latest 10 day(s).
| Time | Temp. | Humidity | Pressure | Rain* | Wind** | Luminosity | Snow |
|---|---|---|---|---|---|---|---|
| 1777655714 | 9.44° C | 35% | 1025.2 hPa | 0 mm | - | 228 W/m² | - |
| 1777655411 | 10° C | 34% | 1025.2 hPa | 0 mm | - | 183 W/m² | - |
| 1777655107 | 10° C | 33% | 1025.2 hPa | 0 mm | - | 868 W/m² | - |
| 1777654805 | 10° C | 36% | 1025.2 hPa | 0 mm | - | 907 W/m² | - |
| 1777654502 | 10° C | 37% | 1025.3 hPa | 0 mm | - | 905 W/m² | - |
| 1777654200 | 8.89° C | 39% | 1025.3 hPa | 0 mm | - | 902 W/m² | - |
| 1777653898 | 9.44° C | 40% | 1025 hPa | 0 mm | - | 844 W/m² | - |
| 1777653594 | 8.89° C | 37% | 1025.2 hPa | 0 mm | - | 828 W/m² | - |
| 1777653290 | 9.44° C | 39% | 1025.2 hPa | 0 mm | - | 454 W/m² | - |
| 1777652987 | 9.44° C | 41% | 1025.3 hPa | 0 mm | - | 799 W/m² | - |
| 1777652683 | 10° C | 40% | 1025.2 hPa | 0 mm | - | 746 W/m² | - |
| 1777652381 | 8.89° C | 43% | 1024.9 hPa | 0 mm | - | 758 W/m² | - |
| 1777652077 | 8.33° C | 42% | 1025 hPa | 0 mm | - | 728 W/m² | - |
| 1777651774 | 8.33° C | 46% | 1025.2 hPa | 0 mm | - | 718 W/m² | - |
| 1777651471 | 8.33° C | 45% | 1025.3 hPa | 0 mm | - | 687 W/m² | - |
| 1777651168 | 7.78° C | 41% | 1025.2 hPa | 0 mm | - | 675 W/m² | - |
| 1777650865 | 7.78° C | 42% | 1025.2 hPa | 0 mm | - | 665 W/m² | - |
| 1777650562 | 8.33° C | 45% | 1025.3 hPa | 0 mm | - | 656 W/m² | - |
| 1777650259 | 7.78° C | 46% | 1025 hPa | 0 mm | - | 635 W/m² | - |
| 1777649956 | 7.22° C | 50% | 1025 hPa | 0 mm | - | 621 W/m² | - |
| 1777649654 | 7.22° C | 53% | 1025 hPa | 0 mm | - | 606 W/m² | - |
| 1777649349 | 7.22° C | 59% | 1025 hPa | 0 mm | - | 594 W/m² | - |
| 1777649047 | 6.67° C | 55% | 1024.7 hPa | 0 mm | - | 583 W/m² | - |
| 1777648744 | 6.11° C | 57% | 1025.2 hPa | 0 mm | - | 567 W/m² | - |
| 1777648440 | 6.11° C | 64% | 1024.9 hPa | 0 mm | - | 555 W/m² | - |
* Rain latest hour (hover to see other rain measurements)
** Current wind speed in m/s (hover to see current wind gust speed)